Home   Weather   Grimstad   Past weeks

Flag for Norway Past Weather in Grimstad, Norway — Yesterday and Last 2 Weeks

Now
50 °F

Cool.


Feels Like: 45 °F
Forecast: 40 / 46 °F
Wind: 14 mph from West

Location: Torungen Fyr

Current Time: Jan 19, 2017 at 4:32:45 pm

Latest Report: Jan 19, 2017 at 3:00 pm


Visibility: N/A

Pressure: 30.34 "Hg

Humidity: 76%

Dew Point: 42 °F

Location of GrimstadLocation

Past Weather in Grimstad — Graph

°F

Grimstad Temperature Yesterday

Maximum temperature yesterday: 46 °F (at 3:00 pm)
Minimum temperature yesterday: 41 °F (at 5:00 am)
Average temperature yesterday: 43 °F

High & Low Weather Summary for the Past Weeks

 TemperatureHumidityPressure
High50 °F (Jan 19, 2:00 pm)98% (Jan 7, 2:00 am)30.71 "Hg (Jan 7, 2:00 am)
Low21 °F (Jan 5, 11:00 am)30% (Jan 4, 3:00 pm)28.58 "Hg (Jan 11, 1:00 pm)
Average37 °F81%29.94 "Hg
* Reported Jan 4 3:00 pm — Jan 19 3:00 pm, Grimstad, Weather by CustomWeather, © 2017

Note: Actual official high and low records may vary slightly from our data, if they occured in-between our weather recording intervals... More about our weather records

Advertising

Grimstad Weather History for the Previous 24 Hours

Scroll right to see more
 ConditionsComfort  
Time TempWeatherWind HumidityBarometerVisibility
3:00 pm
Thu, Jan 19
50 °FCool.14 mph76%30.34 "HgN/A
2:00 pm50 °FCool.15 mph76%30.34 "HgN/A
1:00 pm49 °FCool.12 mph80%30.35 "HgN/A
12:00 pm48 °FCool.9 mph84%30.36 "HgN/A
11:00 am47 °FCool.8 mph86%30.37 "HgN/A
10:00 am45 °FQuite cool.7 mph90%30.37 "HgN/A
9:00 am45 °FCool.7 mph88%30.37 "HgN/A
8:00 am43 °FQuite cool.9 mph95%30.35 "HgN/A
7:00 am43 °FQuite cool.8 mph94%30.36 "HgN/A
6:00 am43 °FQuite cool.9 mph92%30.37 "HgN/A
5:00 am44 °FQuite cool.9 mph89%30.37 "HgN/A
4:00 am42 °FQuite cool.9 mph93%30.38 "HgN/A
3:00 am42 °FQuite cool.12 mph93%30.37 "HgN/A
2:00 am42 °FQuite cool.9 mph92%30.38 "HgN/A
1:00 am43 °FQuite cool.9 mph89%30.39 "HgN/A
12:00 am43 °FQuite cool.9 mph87%30.39 "HgN/A
11:00 pm
Wed, Jan 18
44 °FQuite cool.9 mph85%30.38 "HgN/A
10:00 pm44 °FQuite cool.9 mph85%30.38 "HgN/A
9:00 pm44 °FQuite cool.10 mph89%30.37 "HgN/A
8:00 pm44 °FQuite cool.12 mph91%30.37 "HgN/A
7:00 pm43 °FQuite cool.13 mph90%30.36 "HgN/A
6:00 pm43 °FQuite cool.8 mph91%30.36 "HgN/A
5:00 pm44 °FQuite cool.10 mph89%30.35 "HgN/A
4:00 pm45 °FQuite cool.9 mph88%30.35 "HgN/A
Weather by CustomWeather, © 2017

See weather overviewHow to use our weather pages